This demonstration page uses our WeatherBlox Daily Observations layout. Learn more.

Left ArrowRight Arrow

39.51506, -84.39828

Hourly Observations for July 12, 2021

Temp ( °F °C ) Dew Point ( °F °C ) Humidity (%) Winds ( mph kmh ) Pressure ( in mb ) Visibility ( mi km ) Precip ( " mm )
12:15 am 00:15 Cloudy 72 22 N/A N/A N N/A 29.96 1015 10 16 N/A
12:35 am 00:35 Cloudy 72 22 N/A N/A N N/A 29.96 1015 10 16 N/A
12:55 am 00:55 Cloudy 72 22 N/A N/A N N/A 29.96 1015 10 16 N/A
1:15 am 01:15 Cloudy with Heavy Rain 72 22 N/A N/A SW 10 17 29.98 1015 4 6 N/A
1:35 am 01:35 Cloudy with Light Rain 72 22 N/A N/A ESE 5 7 29.97 1015 4 6 N/A
1:55 am 01:55 Cloudy 72 22 N/A N/A ENE 5 7 29.97 1015 7 11 0.01 0.25
2:15 am 02:15 Cloudy 72 22 N/A N/A ENE 3 6 29.97 1015 10 16 N/A
2:35 am 02:35 Cloudy 72 22 N/A N/A ENE 5 7 29.96 1015 10 16 N/A
2:55 am 02:55 Mostly Cloudy 72 22 N/A N/A N N/A 29.97 1015 10 16 0.01 0.25
3:15 am 03:15 Cloudy 72 22 N/A N/A N N/A 29.97 1015 10 16 N/A
3:35 am 03:35 Cloudy 72 22 N/A N/A N N/A 29.97 1015 10 16 N/A
3:55 am 03:55 Mostly Cloudy with Haze 70 21 N/A N/A NE 3 6 29.97 1015 5 8 0.01 0.25
4:15 am 04:15 Hazy 70 21 N/A N/A N N/A 29.98 1015 7 11 N/A
4:35 am 04:35 Partly Cloudy with Mist and Fog 70 21 N/A N/A N N/A 29.98 1015 3 5 N/A
4:55 am 04:55 Mostly Cloudy with Mist and Fog 70 21 N/A N/A W 3 6 29.98 1015 4 6 N/A
5:15 am 05:15 Mostly Cloudy with Haze 70 21 N/A N/A N N/A 29.98 1015 5 8 N/A
5:35 am 05:35 Cloudy with Haze 70 21 N/A N/A N N/A 29.99 1016 5 8 N/A
5:55 am 05:55 Cloudy with Haze 70 21 N/A N/A N N/A 30.00 1016 7 11 N/A
6:15 am 06:15 Cloudy with Haze 70 21 N/A N/A N N/A 30.00 1016 7 11 0.01 0.25
6:35 am 06:35 Cloudy 72 22 N/A N/A SW 3 6 30.00 1016 7 11 0.01 0.25
6:55 am 06:55 Cloudy 72 22 N/A N/A SSW 3 6 30.01 1016 10 16 0.01 0.25
7:15 am 07:15 Mostly Cloudy 72 22 N/A N/A S 3 6 30.01 1016 10 16 0.01 0.25
7:35 am 07:35 Partly Cloudy 72 22 N/A N/A S 8 13 30.01 1016 10 16 0.01 0.25
7:55 am 07:55 Mostly Cloudy 73 23 N/A N/A S 6 9 30.01 1016 10 16 0.01 0.25
8:15 am 08:15 Cloudy 73 23 N/A N/A SW 6 9 30.02 1017 10 16 N/A
8:35 am 08:35 Partly Cloudy 73 23 N/A N/A SSW 9 15 30.02 1017 10 16 N/A
8:55 am 08:55 Partly Cloudy 74 23.4 74 23.2 99 99 SSW 7 11 30.03 1017 10 16 N/A
9:15 am 09:15 Mostly Cloudy 74 23.2 73 23 99 99 SSW 9 15 30.04 1017 10 16 0.01 0.25
9:35 am 09:35 Cloudy 75 24 74 23.2 95 95 SSW 10 17 30.05 1017 10 16 0.01 0.25
9:55 am 09:55 Cloudy 76 24.4 74 23.3 94 94 SSW 8 13 30.03 1017 10 16 0.01 0.25
10:15 am 10:15 Cloudy 76 24.4 74 23.3 94 94 S 10 17 30.04 1017 10 16 N/A
10:35 am 10:35 Mostly Cloudy 76 24.5 74 23.2 92 92 SSW 10 17 30.04 1017 10 16 N/A
10:55 am 10:55 Mostly Cloudy 76 24.6 74 23.2 92 92 SSW 8 13 30.04 1017 10 16 N/A
11:15 am 11:15 Cloudy with Light Rain 75 24 75 23.8 99 99 S 8 13 30.05 1017 10 16 N/A
11:35 am 11:35 Partly Cloudy 76 24.6 75 23.7 95 95 SSW 9 15 30.05 1018 10 16 N/A
11:55 am 11:55 Cloudy 77 25.2 75 23.9 93 93 SSW 7 11 30.05 1018 10 16 N/A
12:15 pm 12:15 Cloudy with Light Rain 77 25 73 23 89 89 S 9 15 30.05 1018 10 16 N/A
12:35 pm 12:35 Cloudy 78 25.6 76 24.2 92 92 SSW 6 9 30.05 1018 10 16 N/A
12:55 pm 12:55 Partly Cloudy 80 26.8 74 23.1 80 80 SSW 14 22 30.05 1018 10 16 N/A
1:15 pm 13:15 Cloudy 76 24.6 74 23.2 92 92 W 10 17 30.05 1018 10 16 N/A
1:35 pm 13:35 Partly Cloudy 78 25.3 74 23.5 90 90 W 7 11 30.04 1017 10 16 0.01 0.25
1:55 pm 13:55 Cloudy 77 24.8 74 23.1 90 90 N N/A 30.04 1017 10 16 0.01 0.25
2:15 pm 14:15 Partly Cloudy 75 24 73 23 94 94 NW 3 6 30.05 1017 7 11 N/A
2:35 pm 14:35 Cloudy 76 24.4 74 23.6 95 95 N N/A 30.03 1017 10 16 N/A
2:55 pm 14:55 Mostly Cloudy 76 24.6 75 24.1 97 97 S 3 6 30.04 1017 10 16 N/A
3:15 pm 15:15 Sunny 80 26.7 77 24.9 90 90 WSW 5 7 30.03 1017 10 16 N/A
3:35 pm 15:35 Mostly Cloudy 80 26.5 75 23.7 85 85 S 7 11 30.03 1017 10 16 N/A
3:55 pm 15:55 Partly Cloudy 82 27.9 73 22.5 73 73 SW 10 17 30.02 1016 10 16 N/A
4:15 pm 16:15 Partly Cloudy 83 28.5 73 23 72 72 SSW 9 15 30.02 1016 10 16 N/A
4:35 pm 16:35 Sunny 83 28.4 72 22.4 70 70 S 10 17 30.01 1016 10 16 N/A
4:55 pm 16:55 Partly Cloudy 83 28.4 71 21.8 67 67 SW 7 11 30.01 1016 10 16 0.01 0.25
5:15 pm 17:15 Cloudy 82 28 72 22.1 70 70 SSW 8 13 30.00 1016 10 16 N/A
5:35 pm 17:35 Mostly Cloudy with Light Rain 81 27.2 73 23 78 78 SW 8 13 30.00 1016 10 16 N/A
5:55 pm 17:55 Partly Cloudy 79 26.2 74 23.5 85 85 N N/A 30.00 1016 10 16 N/A
6:15 pm 18:15 Cloudy 80 26.5 74 23.4 83 83 NW 3 6 29.99 1016 10 16 N/A
6:35 pm 18:35 Cloudy 81 27.2 72 22.4 75 75 W 9 15 30.00 1016 10 16 N/A
6:55 pm 18:55 Cloudy with Nearby Thunderstorms 76 24.4 73 22.6 90 90 NW 10 17 30.00 1016 10 16 N/A
7:15 pm 19:15 Cloudy 76 24.7 73 22.7 89 89 NW 3 6 30.01 1016 10 16 N/A
7:35 pm 19:35 Mostly Cloudy with Heavy Rain 76 24.6 74 23.3 93 93 N 5 7 30.01 1016 4 6 N/A
7:55 pm 19:55 Partly Cloudy 75 24.1 75 23.8 98 98 N 3 6 30.02 1016 10 16 N/A
8:15 pm 20:15 Partly Cloudy 75 24 75 24 100 100 N 3 6 30.03 1017 10 16 N/A
8:35 pm 20:35 Mostly Cloudy 75 24 N/A N/A N 3 6 30.03 1017 10 16 N/A
8:55 pm 20:55 Sunny 73 23 N/A N/A NNE 5 7 30.03 1017 10 16 N/A
9:15 pm 21:15 Clear 73 23 N/A N/A NNW 3 6 30.03 1017 10 16 N/A
9:35 pm 21:35 Partly Cloudy 73 23 N/A N/A NNW 3 6 30.04 1017 10 16 N/A
9:55 pm 21:55 Clear 73 23 N/A N/A N N/A 30.04 1017 10 16 N/A
10:15 pm 22:15 Partly Cloudy 73 23 N/A N/A N N/A 30.05 1018 10 16 N/A
10:35 pm 22:35 Mostly Cloudy with Thunderstorms 73 23 N/A N/A WNW 5 7 30.06 1018 7 11 N/A
10:55 pm 22:55 Mostly Cloudy 74 23.6 74 23.3 98 98 N N/A 30.06 1018 10 16 N/A
11:15 pm 23:15 Cloudy with Light Rain 75 23.9 74 23.4 97 97 SSW 10 17 30.06 1018 10 16 N/A
11:35 pm 23:35 Mostly Cloudy 73 23 73 22.5 97 97 SW 6 9 30.06 1018 10 16 N/A
11:55 pm 23:55 Mostly Cloudy 73 22.7 73 22.7 100 100 N N/A 30.06 1018 10 16 N/A

Powered by AerisWeather